Weather History for Kingsville NAS, TX

Change the Weather History Date:

Saturday, November 12, 2011

  Actual Average Record
Temperature  
Mean Temperature 64 °F -  
Max Temperature 81 °F 74 °F 86 °F (2007)
Min Temperature 46 °F 56 °F 46 °F (2011)
Degree Days  
Heating Degree Days 2    
Growing Degree Days 14 (Base 50)    
Moisture  
Dew Point 56 °F    
Average Humidity 71    
Maximum Humidity 93    
Minimum Humidity 45    
Precipitation  
Precipitation 0.00 in - - ()
Sea Level Pressure  
Sea Level Pressure 29.99 in    
Wind  
Wind Speed 8 mph (SSE)    
Max Wind Speed 18 mph    
Max Gust Speed 31 mph    
Visibility 10 miles    
Events      
Averages and records for this station are not official NWS values.
T = Trace of Precipitation, MM = Missing Value Source: NWS Daily Summary

Daily Weather History Graph

Daily Weather History Graph

Search for Another Location

Airport:

Trip Planner

Search our weather history database for the weather conditions in past years. The results will help you decide how hot, cold, wet, or windy it might be!

Date:

Astronomy

Nov. 12, 2011 Rise Set
Actual Time 6:49 AM CST 5:40 PM CST
Civil Twilight 6:25 AM CST 6:05 PM CST
Nautical Twilight 5:56 AM CST 6:33 PM CST
Astronomical Twilight 5:29 AM CST 7:01 PM CST
Moon 7:07 PM CST (11/12) 8:23 AM CST (11/12)
Length of Visible Light 11h 40m
Length of Day
10h 51m
Full, 97% of the Moon is Illuminated
Nov 12
Full
Nov 18
Last Quarter
Nov 25
New
Dec 2
First Quarter
Dec 10
Full

Hourly Weather History & Observations

Time (CST) Temp. Heat Index Dew Point Humidity Pressure Visibility Wind Dir Wind Speed Gust Speed Precip Events Conditions
12:56 AM 51.1 °F - 46.0 °F 83% 30.07 in 10.0 mi SSE 5.8 mph - N/A   Clear
1:56 AM 51.1 °F - 46.0 °F 83% 30.06 in 10.0 mi SSE 3.5 mph - N/A   Clear
2:56 AM 50.0 °F - 45.0 °F 83% 30.04 in 10.0 mi SE 5.8 mph - N/A   Clear
3:56 AM 50.0 °F - 46.9 °F 89% 30.02 in 10.0 mi SE 5.8 mph - N/A   Clear
4:56 AM 50.0 °F - 48.0 °F 93% 30.00 in 10.0 mi SE 5.8 mph - N/A   Clear
5:56 AM 46.9 °F - 42.1 °F 83% 30.01 in 10.0 mi Calm Calm - N/A   Clear
6:56 AM 50.0 °F - 45.0 °F 83% 30.01 in 10.0 mi Calm Calm - N/A   Mostly Cloudy
7:56 AM 60.1 °F - 54.0 °F 80% 30.04 in 10.0 mi Calm Calm - N/A   Clear
8:56 AM 68.0 °F - 55.9 °F 65% 30.05 in 10.0 mi South 6.9 mph - N/A   Clear
9:56 AM 75.9 °F - 57.9 °F 54% 30.05 in 10.0 mi South 18.4 mph - N/A   Clear
10:56 AM 79.0 °F - 57.9 °F 48% 30.04 in 10.0 mi South 18.4 mph 31.1 mph N/A   Scattered Clouds
11:56 AM 80.1 °F 80.6 °F 57.9 °F 47% 30.01 in 10.0 mi South 18.4 mph 26.5 mph N/A   Overcast
12:56 PM 81.0 °F 81.1 °F 57.9 °F 45% 29.98 in 10.0 mi South 16.1 mph - N/A   Overcast
1:56 PM 81.0 °F 81.3 °F 59.0 °F 47% 29.95 in 10.0 mi SE 16.1 mph - N/A   Mostly Cloudy
2:56 PM 81.0 °F 81.7 °F 61.0 °F 50% 29.93 in 10.0 mi SE 16.1 mph 24.2 mph N/A   Partly Cloudy
3:56 PM 78.1 °F - 62.1 °F 58% 29.92 in 10.0 mi SE 18.4 mph 26.5 mph N/A   Partly Cloudy
4:56 PM 77.0 °F - 62.1 °F 60% 29.92 in 10.0 mi SE 18.4 mph 29.9 mph N/A   Clear
5:56 PM 73.9 °F - 63.0 °F 68% 29.92 in 10.0 mi SE 16.1 mph 23.0 mph N/A   Clear
6:56 PM 72.0 °F - 63.0 °F 73% 29.94 in 10.0 mi SE 13.8 mph - N/A   Clear
7:56 PM 70.0 °F - 63.0 °F 78% 29.96 in 10.0 mi SE 6.9 mph - N/A   Clear
8:56 PM 71.1 °F - 64.0 °F 78% 29.97 in 10.0 mi SE 6.9 mph - N/A   Mostly Cloudy
9:56 PM 69.1 °F - 64.0 °F 84% 29.98 in 10.0 mi SE 5.8 mph - N/A   Mostly Cloudy
10:56 PM 68.0 °F - 64.0 °F 87% 29.98 in 10.0 mi SE 6.9 mph - N/A   Mostly Cloudy
11:56 PM 66.0 °F - 63.0 °F 90% 29.96 in 9.0 mi SSE 6.9 mph - N/A   Partly Cloudy